GFSFLT1_con_mlcape_000.txt.gz
CAPE
767 737 882 829 811 847 759 664 557 654 369 362 471 554 544 380 734 408 477 569 356 510 346 58 11 0 3 11 14 16 13 4 1
371 701 241 544 658 749 776 654 728 566 676 457 447 590 418 290 372 319 340 523 531 320 55 0 0 0 0 0 2 8 9 9 5
167 186 0 229 348 314 505 740 571 614 584 720 502 475 449 195 78 249 278 341 353 222 42 0 0 0 0 0 8 12 4 2 6
0 3 0 0 28 18 239 313 529 631 600 702 558 353 189 88 131 139 192 203 300 171 2 0 0 0 0 5 8 8 8 17 4
0 0 0 0 0 0 43 21 224 460 662 755 642 362 128 8 4 26 58 174 168 216 0 0 0 0 0 8 8 8 12 7 12
0 0 0 0 14 0 0 0 240 514 719 802 653 446 32 0 5 106 80 161 158 91 0 0 0 0 14 16 21 9 18 5 24
0 0 0 0 0 0 0 0 48 287 392 588 637 427 157 107 155 209 192 133 161 114 41 0 0 0 9 15 17 13 14 5 10
0 0 0 0 0 0 0 0 0 0 37 434 628 590 381 297 234 188 200 108 103 76 70 0 0 0 5 20 22 30 10 12 3
0 0 0 0 0 0 0 0 0 0 16 49 99 465 376 265 251 265 252 69 52 36 3 63 0 0 0 16 29 26 20 6 13
0 0 0 0 0 0 0 0 0 0 0 0 34 294 591 464 323 295 323 71 27 18 46 186 6 0 0 3 21 23 16 6 11
0 0 0 0 0 0 0 0 0 0 0 0 4 161 253 372 496 341 216 145 7 19 41 152 27 1 0 0 19 24 1 9 10
0 0 0 0 0 0 0 0 0 0 0 0 0 0 169 127 152 420 297 171 32 14 38 191 87 28 0 0 3 13 11 12 2
0 0 0 0 0 0 0 0 0 0 0 0 0 0 16 41 1 108 354 250 57 25 1 67 168 31 23 0 0 6 5 6 6
0 0 0 0 0 0 0 0 0 0 0 0 0 0 0 56 86 33 50 223 149 25 10 1 74 105 33 25 12 8 5 9 2
0 0 0 0 0 0 0 0 0 0 0 0 0 0 0 0 6 156 74 82 213 76 2 0 0 103 45 39 35 3 3 10 3
0 0 0 0 0 0 0 0 0 0 0 0 0 0 0 0 0 0 147 167 205 197 45 0 0 13 68 19 49 28 9 5 4
0 0 0 0 0 0 0 0 0 0 0 0 0 0 0 0 0 0 7 111 265 155 112 5 1 0 0 7 40 50 11 4 4
0 0 0 0 0 0 0 0 0 0 0 0 2 5 0 4 0 0 0 25 35 114 74 21 1 0 0 5 22 40 14 7 4
0 0 0 0 0 0 0 0 0 0 0 0 2 12 11 0 3 0 0 0 66 65 110 74 22 3 8 3 0 16 21 8 0
0 0 0 0 0 0 0 0 0 0 0 1 25 0 0 0 20 4 0 0 0 78 117 94 77 53 18 3 0 7 16 7 0

GFSFLT1_con_mlcape_006.txt.gz
CAPE
4 0 28 26 319 673 974 1106 1093 844 708 741 716 507 680 602 400 468 486 486 978 1031 814 721 419 257 141 0 0 6 29 27 17
260 30 57 0 0 2 67 605 955 1155 930 898 902 770 658 534 359 489 539 605 1084 1015 748 550 229 135 38 0 0 0 8 13 12
0 0 69 18 48 13 0 26 282 702 1086 978 1053 1020 501 256 302 462 591 641 789 982 776 460 211 36 0 0 0 0 14 23 11
0 0 0 0 0 0 0 11 182 55 593 867 1050 1017 628 187 79 232 537 720 586 971 811 348 79 1 0 0 0 10 13 10 6
0 0 0 0 0 0 0 0 297 14 9 521 945 947 666 398 117 42 120 594 497 593 807 308 29 0 0 0 3 6 12 15 11
0 0 0 0 0 0 0 0 0 0 0 0 177 750 536 307 176 13 0 18 370 347 481 342 89 10 0 0 7 16 13 11 6
0 0 0 0 0 0 0 0 0 0 0 0 0 108 436 279 186 100 119 131 252 342 316 413 183 45 4 1 10 14 21 3 15
0 0 0 0 0 0 0 0 0 0 0 0 0 0 2 201 260 314 291 288 456 623 298 436 181 55 4 7 10 25 20 9 27
0 0 0 0 0 0 0 0 0 0 0 0 0 0 0 0 175 355 498 594 607 659 303 527 341 79 1 29 23 14 23 25 15
0 0 0 0 0 0 0 0 0 0 0 0 0 0 0 0 0 0 131 276 289 522 708 677 464 306 44 16 35 22 18 18 16
0 0 0 0 0 0 0 0 0 0 0 0 0 0 0 0 0 0 0 0 78 243 403 770 617 504 254 32 38 30 23 15 22
0 0 0 0 0 0 0 0 0 0 0 0 0 0 0 0 0 0 0 0 0 40 113 169 507 446 452 170 37 53 67 19 13
0 0 0 0 0 0 0 0 0 0 0 0 0 0 0 0 0 0 0 0 0 0 0 130 349 330 436 338 82 65 91 30 8
0 0 0 0 0 0 0 0 0 0 0 0 0 0 0 0 0 0 0 0 0 0 0 0 138 164 354 345 204 92 100 39 3
0 0 0 0 0 0 0 0 0 0 0 0 0 0 0 0 0 0 0 0 0 0 0 0 2 117 166 340 381 185 84 112 5
0 0 0 0 0 0 0 0 0 0 0 0 0 0 0 0 0 0 0 0 0 0 0 0 0 4 104 175 205 354 130 159 6
0 0 0 0 0 0 0 0 0 0 0 0 0 0 0 0 0 0 0 0 0 0 0 0 0 0 79 75 145 156 279 216 70
0 0 0 0 0 0 0 0 0 0 0 0 0 0 0 0 0 0 0 0 0 0 0 0 0 0 0 50 147 105 163 306 193
0 0 0 0 0 0 0 0 0 0 0 0 0 0 0 0 0 0 0 0 0 0 0 0 0 0 0 0 207 206 96 192 259
0 0 0 0 0 0 0 0 0 0 0 0 0 0 0 0 0 0 0 0 0 0 0 0 0 0 0 0 0 266 153 203 135

GFSFLT1_con_mlcape_009.txt.gz
CAPE
24 1 0 29 103 140 765 1112 1222 1066 937 872 784 775 627 731 364 532 651 703 849 1137 1029 698 676 498 338 1 0 0 44 3 2
27 63 24 3 0 0 73 307 772 1106 1123 1122 988 882 774 595 377 512 528 671 836 863 1046 764 684 482 253 2 1 1 13 0 4
0 0 0 0 0 0 13 92 18 282 922 965 1213 1069 629 367 320 353 504 625 564 729 706 773 607 419 165 27 0 8 7 1 8
0 0 0 0 0 0 0 28 0 0 214 684 966 934 762 411 226 111 163 512 493 442 481 448 575 253 30 0 0 9 22 19 5
0 0 0 0 0 0 0 0 0 0 0 0 229 822 660 475 332 198 120 129 511 497 292 332 426 195 39 1 0 7 37 16 13
0 0 0 0 0 0 0 0 0 0 0 0 0 2 235 305 154 181 129 156 105 230 525 290 393 182 71 5 1 7 33 23 20
0 0 0 0 0 0 0 0 0 0 0 0 0 0 0 0 51 123 236 388 517 467 491 522 318 339 83 13 3 10 28 17 13
0 0 0 0 0 0 0 0 0 0 0 0 0 0 0 0 0 9 172 418 600 690 768 551 520 469 214 40 3 2 25 25 17
0 0 0 0 0 0 0 0 0 0 0 0 0 0 0 0 0 0 0 0 70 528 530 573 504 474 328 47 2 0 12 27 16
0 0 0 0 0 0 0 0 0 0 0 0 0 0 0 0 0 0 0 0 0 2 122 280 476 591 555 91 61 35 14 18 24
0 0 0 0 0 0 0 0 0 0 0 0 0 0 0 0 0 0 0 0 0 0 0 4 110 252 568 339 135 146 56 5 22
0 0 0 0 0 0 0 0 0 0 0 0 0 0 0 0 0 0 0 0 0 0 0 0 0 18 376 566 358 197 158 55 26
0 0 0 0 0 0 0 0 0 0 0 0 0 0 0 0 0 0 0 0 0 0 0 0 0 0 0 498 540 292 184 140 55
0 0 0 0 0 0 0 0 0 0 0 0 0 0 0 0 0 0 0 0 0 0 0 0 0 0 0 1 539 543 299 187 155
0 0 0 0 0 0 0 0 0 0 0 0 0 0 0 0 0 0 0 0 0 0 0 0 0 0 0 0 2 541 514 290 230
0 0 0 0 0 0 0 0 0 0 0 0 0 0 0 0 0 0 0 0 0 0 0 0 0 0 0 0 0 4 594 458 256
0 0 0 0 0 0 0 0 0 0 0 0 0 0 0 0 0 0 0 0 0 0 0 0 0 0 0 0 0 0 3 677 449
0 0 0 0 0 0 0 0 0 0 0 0 0 0 0 0 0 0 0 0 0 0 0 0 0 0 0 0 0 0 0 15 640
0 0 0 0 0 0 0 0 0 0 0 0 0 0 0 0 0 0 0 0 0 0 0 0 0 0 0 0 0 0 0 0 241
0 0 0 0 0 0 0 0 0 0 0 0 0 0 0 0 0 0 0 0 0 0 0 0 0 0 0 0 1 0 3 0 1

GFSFLT1_con_mlcape_012.txt.gz
CAPE
19 10 2 26 21 259 553 932 1243 1338 1037 952 1044 962 1029 649 445 552 623 665 612 1068 1133 762 651 490 508 333 126 67 20 8 1
0 0 5 8 32 55 199 152 435 1011 1252 1227 1059 1008 820 515 395 502 545 636 553 545 544 435 626 571 438 53 0 0 53 18 6
0 0 0 1 0 103 159 4 0 318 779 967 1237 1087 624 389 299 243 347 502 614 574 336 335 312 442 537 122 38 12 30 11 6
0 0 0 0 0 0 0 0 0 0 0 113 697 882 743 485 400 322 140 186 430 595 497 331 319 462 370 70 8 4 18 17 3
0 0 0 0 0 0 0 0 0 0 0 0 0 118 374 329 171 202 212 332 495 434 555 535 386 329 314 102 12 0 11 22 3
0 0 0 0 0 0 0 0 0 0 0 0 0 0 0 0 0 13 168 387 602 628 384 603 465 486 364 151 3 0 14 25 1
0 0 0 0 0 0 0 0 0 0 0 0 0 0 0 0 0 0 0 53 481 638 737 626 604 557 540 272 10 1 0 11 6
0 0 0 0 0 0 0 0 0 0 0 0 0 0 0 0 0 0 0 0 3 144 557 587 580 666 610 406 98 0 2 2 13
0 0 0 0 0 0 0 0 0 0 0 0 0 0 0 0 0 0 0 0 0 0 1 4 217 464 663 684 397 66 15 1 11
0 0 0 0 0 0 0 0 0 0 0 0 0 0 0 0 0 0 0 0 0 0 0 0 0 0 48 580 509 216 89 32 10
0 0 0 0 0 0 0 0 0 0 0 0 0 0 0 0 0 0 0 0 0 0 0 0 0 0 0 0 180 326 241 156 44
0 0 0 0 0 0 0 0 0 0 0 0 0 0 0 0 0 0 0 0 0 0 0 0 0 0 0 0 0 92 330 277 150
0 0 0 0 0 0 0 0 0 0 0 0 0 0 0 0 0 0 0 0 0 0 0 0 0 0 0 0 0 0 53 376 271
0 0 0 0 0 0 0 0 0 0 0 0 0 0 0 0 0 0 0 0 0 0 0 0 0 0 0 0 0 0 0 200 334
0 0 0 0 0 0 0 0 0 0 0 0 0 0 0 0 0 0 0 0 0 0 0 0 0 0 0 0 0 0 0 1 21
0 0 0 0 0 0 0 0 0 0 0 0 0 0 0 0 0 0 0 0 0 0 0 0 0 0 0 0 0 0 0 0 1
0 0 0 0 0 0 0 0 0 0 0 0 0 0 0 0 0 0 0 0 0 0 0 0 0 0 0 0 0 0 0 0 0
0 0 0 0 0 0 0 0 0 0 0 0 0 0 0 0 0 0 0 0 0 0 0 0 0 0 0 0 0 0 0 0 0
0 0 0 0 0 0 0 0 0 0 0 0 0 0 0 0 0 0 0 0 0 0 0 0 0 0 0 0 0 0 0 0 0
0 0 0 0 0 0 0 0 0 0 0 0 0 0 0 0 0 0 0 0 0 0 0 0 0 0 0 0 0 0 0 2 3